EHI
0 8 20 19 8 1 0 0 0 0 0 0 0 0 0 0 0 0 0 0 0 0 0 0 0 0 0 0 0 0 0 0 0 0 0 0 0 0 0 0 0 0 0
0 7 22 25 15 6 2 0 0 0 0 0 0 0 0 0 0 0 0 0 0 0 0 0 0 0 0 0 0 0 0 0 0 0 0 0 0 0 0 0 0 0 0
1 6 23 38 34 20 8 2 0 0 0 0 0 0 0 0 0 0 0 0 0 0 0 0 0 0 0 0 0 0 0 0 0 0 0 0 0 0 0 0 0 0 0
4 7 26 52 57 41 21 8 2 0 0 0 0 0 0 0 0 0 0 0 0 0 0 0 0 0 0 0 0 0 0 0 0 0 0 0 0 0 0 0 0 0 0
5 9 32 64 75 62 40 19 6 1 0 0 0 0 0 0 0 0 0 0 0 0 0 0 0 0 0 0 0 0 0 0 0 0 0 0 0 1 1 1 0 0 0
7 13 38 70 84 77 61 36 15 4 0 0 0 0 0 0 0 0 0 0 0 0 0 0 0 0 0 0 0 0 0 0 0 0 0 0 0 5 11 12 7 4 2
16 26 49 76 87 85 74 53 28 10 2 0 0 0 0 0 0 0 0 0 0 0 0 0 0 0 0 0 0 0 0 0 0 0 0 0 0 12 32 40 33 23 16
26 37 58 78 86 86 79 63 40 17 5 1 1 0 0 0 0 0 0 0 0 0 0 0 0 0 0 0 0 0 0 0 0 0 0 0 0 15 47 67 65 55 47
19 31 48 64 74 76 72 62 43 20 6 3 2 1 0 0 0 1 1 1 0 0 0 0 0 0 0 0 0 0 0 0 0 0 0 0 0 13 45 75 85 82 77
8 16 29 42 51 55 54 51 39 20 6 3 3 2 1 0 0 1 2 1 0 0 0 0 1 2 1 1 2 2 0 0 0 0 0 0 0 9 38 74 92 94 93
10 13 20 26 29 32 34 33 27 15 6 3 2 2 1 0 0 0 1 1 0 1 3 6 9 8 4 3 4 3 1 0 0 0 0 0 1 10 36 73 95 98 97
15 15 17 20 20 21 20 15 10 6 3 1 1 1 1 0 0 0 0 0 0 1 5 12 17 14 6 3 3 2 1 0 0 0 0 2 7 17 40 72 94 99 97
22 16 14 16 16 13 8 4 2 1 1 0 0 0 0 0 0 0 0 0 0 3 8 15 19 15 6 2 1 1 0 0 0 0 0 4 14 28 48 74 93 99 97
36 23 13 12 10 5 1 0 1 0 0 0 0 0 0 0 0 0 0 0 3 11 20 25 22 14 5 1 0 0 0 0 0 0 0 6 19 37 56 76 91 97 97
59 46 28 17 9 5 5 4 3 2 1 0 0 0 1 2 2 2 1 2 8 22 36 40 30 15 5 1 1 0 0 0 0 0 0 5 20 42 62 78 89 94 95
77 70 57 40 26 23 27 26 24 22 17 11 8 8 9 14 18 15 9 10 20 36 49 49 37 20 9 7 6 3 1 0 0 0 0 4 18 41 62 77 87 91 93
83 83 79 68 58 55 58 61 61 57 46 35 30 29 33 42 48 44 36 36 45 57 63 57 43 28 19 16 13 7 4 2 0 0 1 4 13 30 51 69 81 88 89
84 85 85 82 79 78 79 81 82 75 63 49 43 47 56 67 74 75 72 71 74 78 76 65 49 35 27 20 13 8 5 2 1 0 1 3 9 18 32 51 67 78 82
83 81 80 79 80 82 83 83 81 72 59 46 38 40 49 63 76 86 90 90 88 84 77 65 50 37 27 17 9 5 3 2 1 0 0 2 6 10 18 30 44 54 59
73 72 72 72 74 76 77 78 77 69 58 48 37 26 27 40 59 74 82 85 83 77 69 59 47 35 25 15 8 4 2 2 1 1 0 1 2 4 8 14 22 27 32
59 60 62 64 65 66 66 64 63 60 56 53 45 29 20 25 39 51 60 69 73 69 62 54 44 34 25 17 10 5 3 2 2 2 1 0 0 0 2 4 8 11 13
40 40 43 45 45 44 42 39 37 37 40 43 40 30 20 20 26 33 42 54 62 61 57 51 45 36 27 18 10 6 3 1 1 1 1 0 0 0 0 0 2 3 4
19 18 19 21 21 19 17 16 16 17 21 25 24 19 15 16 22 28 35 43 49 51 51 49 46 39 26 14 8 5 3 1 0 0 0 0 0 0 0 0 0 0 0
7 7 9 11 10 7 6 7 8 9 11 11 11 10 8 10 17 22 27 33 38 41 41 39 37 31 20 10 5 4 3 1 0 0 0 0 0 0 0 0 0 0 0
6 8 12 13 10 7 5 5 4 5 5 5 6 5 4 4 7 11 17 23 29 29 26 22 19 16 10 5 3 3 3 2 1 0 0 0 0 0 0 0 0 0 0
7 10 13 14 10 7 6 4 3 2 1 2 2 2 1 1 2 5 11 18 22 21 16 11 7 5 3 1 1 2 3 3 2 1 0 0 0 0 0 0 0 0 0
Wind_Speed
10 12 18 19 18 16 15 15 15 15 14 14 15 15 15 15 14 13 12 11 11 11 11 11 11 11 11 11 11 11 11 10 10 10 10 10 9 9 8 9 10 7 10
14 14 20 20 19 18 16 15 14 14 14 14 14 13 13 13 13 12 11 10 10 10 9 9 9 9 9 9 9 9 9 8 8 8 8 7 7 7 6 8 10 7 10
17 14 18 20 20 18 17 15 15 14 13 13 13 12 12 11 11 10 9 9 8 8 8 8 8 8 7 7 7 6 6 5 5 5 5 3 3 5 6 9 12 11 9
17 12 15 21 20 19 17 16 15 14 13 13 12 12 11 10 10 9 8 7 7 7 7 7 7 7 6 6 5 4 3 3 2 3 2 3 4 6 7 9 12 11 10
15 11 15 22 20 19 18 16 15 14 13 13 12 11 11 10 9 9 8 7 6 6 6 6 6 6 6 6 5 5 4 4 5 4 3 3 4 8 10 10 11 12 11
13 10 15 21 20 19 18 17 16 15 14 13 13 12 11 10 10 9 9 8 7 7 6 6 6 6 6 7 7 7 7 7 6 3 4 4 5 11 14 13 13 13 12
12 10 12 19 19 19 18 17 16 15 14 14 13 12 12 11 10 10 10 9 9 8 8 7 7 7 7 8 8 8 8 9 5 4 5 5 6 11 17 17 16 15 14
16 12 11 19 19 18 18 17 16 15 15 14 13 13 12 11 11 11 11 11 10 9 9 9 9 9 9 9 9 9 9 10 8 6 4 4 7 12 18 18 17 16 16
14 12 9 11 14 17 17 17 16 15 14 14 13 13 12 12 12 12 12 12 12 12 12 12 12 12 11 10 10 10 11 12 7 5 7 5 6 11 17 18 18 18 17
12 11 9 9 8 9 11 16 16 16 15 15 14 14 14 13 13 14 12 13 14 14 15 15 14 14 13 12 12 12 13 12 7 6 5 7 11 12 16 19 19 18 18
11 9 9 9 8 8 8 13 14 15 15 15 13 15 14 7 7 8 13 15 17 17 17 17 16 15 14 13 14 15 13 6 6 6 6 11 14 15 17 19 20 19 18
13 12 10 10 10 8 9 7 5 7 7 8 6 8 6 6 6 9 11 18 19 19 19 18 17 15 12 6 10 13 6 8 7 6 8 15 17 17 17 19 21 20 18
15 14 12 11 10 10 6 5 4 4 4 6 8 8 6 5 5 7 5 9 12 15 11 11 11 8 7 6 6 6 7 7 5 6 8 16 17 18 18 18 20 19 18
14 15 13 12 11 10 7 5 6 5 5 6 8 9 7 5 6 6 6 6 6 6 7 7 5 7 8 9 9 9 9 6 6 5 8 17 18 18 17 17 19 19 19
15 15 15 13 13 11 8 6 7 7 7 8 8 9 10 8 8 8 6 6 7 6 7 7 7 8 8 9 9 10 10 9 9 8 6 15 17 17 18 18 19 20 19
16 15 15 15 14 11 9 8 7 7 7 7 7 10 12 10 9 8 7 6 6 7 7 7 8 8 7 7 9 9 9 8 8 8 7 9 15 17 18 19 20 21 21
12 12 14 15 13 12 11 10 7 7 6 7 8 10 11 11 11 9 8 7 7 7 7 6 7 5 5 6 7 7 6 6 6 7 7 6 7 14 18 20 21 21 21
4 5 8 9 9 10 9 7 5 5 5 5 5 6 10 12 12 9 8 7 7 5 5 5 4 4 4 4 4 4 4 4 6 6 6 6 6 7 12 19 21 22 22
5 5 4 2 4 6 6 5 4 4 4 4 3 4 6 10 12 9 8 6 5 4 4 4 3 3 3 4 4 4 5 5 6 7 7 8 7 8 7 11 19 22 23
7 6 6 3 1 2 3 3 3 4 5 4 4 5 6 6 8 7 6 5 4 3 3 3 3 2 3 3 4 5 5 5 5 6 8 8 8 9 9 9 8 12 20
7 7 6 5 3 1 1 2 3 4 4 4 5 6 6 6 5 4 4 4 5 5 5 4 3 4 4 3 2 4 5 6 8 7 6 6 7 8 6 6 6 6 6
7 6 5 4 3 2 1 2 2 3 3 4 4 5 6 6 5 5 5 5 5 5 5 6 5 4 4 4 4 2 4 4 4 5 4 3 3 3 3 3 2 3 3
6 5 4 4 3 2 1 0 2 2 3 3 4 4 5 6 6 6 7 6 6 6 6 7 7 7 5 4 4 4 3 5 4 3 2 1 2 2 2 2 1 1 1
6 6 6 5 5 4 3 2 0 1 3 4 4 4 6 6 6 6 6 6 7 6 6 7 7 6 6 5 4 5 5 4 3 3 3 2 3 2 2 2 1 1 1
6 5 5 5 4 3 2 2 1 1 3 3 4 5 6 5 6 6 6 5 5 5 6 7 6 7 6 6 4 3 3 3 3 3 4 3 3 3 2 1 1 2 3
3 3 4 4 3 2 2 1 0 2 3 5 6 6 5 4 4 5 5 5 5 5 6 6 6 6 6 5 4 4 3 3 3 3 3 2 3 3 2 2 2 2 2
Wind_Direction
151 157 153 151 149 146 142 136 130 126 122 118 115 113 112 111 111 111 112 113 112 111 112 111 109 106 105 105 107 110 114 119 122 123 122 121 119 116 117 123 117 110 111
149 155 153 152 151 148 144 140 136 133 130 126 124 123 122 121 120 120 121 120 119 117 116 116 115 113 111 110 110 113 117 121 122 124 127 129 130 122 116 134 132 127 123
145 152 153 153 153 150 147 145 143 140 138 136 135 134 133 132 131 131 130 128 126 125 125 126 126 124 122 121 121 122 123 124 128 138 139 140 153 151 135 133 137 136 134
145 149 153 155 154 153 150 149 148 148 146 146 146 147 147 147 147 146 145 143 142 141 142 144 144 142 143 145 149 154 160 168 182 196 184 199 204 189 176 156 151 149 149
144 148 157 156 156 155 154 154 155 155 155 156 157 159 160 162 163 164 165 166 165 165 167 168 167 166 169 175 182 194 208 222 232 239 245 246 232 210 198 185 172 165 164
144 148 158 157 157 157 157 159 161 162 164 166 167 169 172 175 179 181 181 184 186 187 189 191 192 191 193 199 206 214 226 238 246 237 238 244 238 223 206 200 192 182 177
145 150 158 158 159 159 160 162 165 168 171 174 175 177 181 185 190 192 192 195 199 202 206 208 210 212 213 216 221 228 236 247 249 238 234 236 240 221 205 203 201 195 190
150 153 159 162 162 163 164 166 170 174 177 180 182 185 189 193 195 196 198 202 207 213 218 221 222 222 223 225 228 232 239 249 258 260 255 241 242 223 210 207 205 202 199
152 157 162 165 167 168 170 171 174 178 182 185 189 192 195 198 200 202 205 209 213 219 223 226 228 230 231 231 233 236 242 248 249 254 267 264 261 233 218 213 210 208 205
155 162 165 165 166 169 174 179 181 184 188 192 196 199 202 205 208 211 212 217 220 224 228 230 232 233 233 233 235 239 245 251 246 245 252 259 260 245 230 220 215 213 210
160 169 171 171 170 170 175 186 187 190 196 198 202 206 208 212 215 219 223 223 226 229 231 233 235 237 237 238 239 241 247 241 233 241 244 251 253 250 241 228 221 217 215
170 177 179 179 178 176 186 186 190 197 201 202 205 211 209 208 217 224 231 231 231 233 234 235 237 239 241 240 243 245 243 240 235 238 241 246 249 252 245 232 223 221 218
176 179 181 183 182 184 194 182 193 204 205 212 215 217 217 216 223 230 229 238 237 237 235 238 237 235 234 235 234 234 239 242 234 234 239 244 248 251 246 233 222 221 221
176 184 181 183 185 191 194 190 192 203 207 214 220 220 217 220 224 227 230 229 226 226 224 226 228 231 235 239 240 241 242 241 237 233 238 243 245 244 239 227 220 221 223
180 185 183 184 188 190 192 195 199 207 212 214 217 219 218 220 225 227 229 228 226 219 217 220 226 231 235 240 242 242 244 243 240 234 240 243 240 235 230 225 222 223 225
181 183 183 187 190 188 189 194 201 206 215 219 220 221 218 220 225 227 230 226 223 217 216 218 222 226 232 235 240 242 242 241 241 240 239 246 241 232 228 228 227 226 227
181 179 181 187 190 190 193 196 199 201 206 214 221 224 221 220 223 224 227 225 220 211 209 213 220 219 224 226 233 240 245 247 250 249 247 243 242 236 231 229 231 231 230
160 169 178 185 193 201 203 206 211 212 215 221 223 226 226 224 223 222 224 225 216 203 198 204 207 211 221 223 233 246 251 256 260 262 260 253 245 245 237 234 234 235 236
112 120 123 130 190 225 227 225 230 243 247 248 248 245 237 232 228 224 227 226 213 205 201 214 211 205 225 236 244 250 250 253 260 269 268 263 252 244 238 236 234 236 239
79 89 99 94 147 231 258 267 264 262 260 260 260 263 264 252 242 230 230 222 216 213 217 229 234 228 224 234 258 263 258 257 256 257 263 268 263 255 243 237 235 239 240
73 79 87 89 79 85 256 259 260 260 262 264 261 260 262 262 259 244 234 217 211 212 219 226 232 242 242 221 240 278 275 257 252 254 255 265 274 273 258 240 231 233 241
94 88 86 91 100 116 208 253 255 266 272 267 275 276 270 267 260 251 231 220 221 221 221 218 216 226 233 206 199 235 292 305 274 252 251 264 305 322 315 290 257 237 239
124 137 138 141 133 138 151 290 329 329 321 317 305 294 289 281 269 251 234 221 221 216 219 217 212 217 230 226 201 194 220 247 291 294 265 270 340 352 343 325 324 296 255
170 172 168 171 170 173 157 142 164 292 292 287 290 289 292 285 275 265 249 232 224 219 222 224 218 215 218 228 219 213 212 204 229 289 298 303 324 320 315 306 320 3 54
185 179 181 182 188 193 179 167 171 269 268 283 297 301 301 295 288 279 264 244 231 224 223 221 216 214 211 214 209 203 217 223 213 226 278 304 321 308 306 335 35 54 70
188 169 170 176 204 217 199 191 204 290 304 315 316 313 308 301 295 287 274 255 240 229 224 222 218 213 210 206 201 194 190 192 197 203 236 278 301 300 330 33 65 82 84